�������l�o���
Date,Time,MP-1(��Sv/h),MP-2(��Sv/h),MP-3(��Sv/h),MP-4(��Sv/h),MP-5(��Sv/h),MP-6(��Sv/h),MP-7(��Sv/h),MP-8(��Sv/h),����,����(m/s),���J
2022/11/11,00:00,0.591,0.855,0.533,1.075,0.755,0.340,0.600,0.565,��,4.4,��
2022/11/11,00:10,0.589,0.852,0.534,1.074,0.756,0.341,0.599,0.563,��,4.7,��
2022/11/11,00:20,0.592,0.853,0.534,1.072,0.756,0.339,0.599,0.562,��,3.7,��
2022/11/11,00:30,0.592,0.854,0.534,1.073,0.754,0.340,0.600,0.563,��,5.5,��
2022/11/11,00:40,0.589,0.855,0.534,1.074,0.756,0.340,0.599,0.564,��,5.5,��
2022/11/11,00:50,0.590,0.854,0.534,1.073,0.754,0.339,0.600,0.564,���k��,4.7,��
2022/11/11,01:00,0.591,0.854,0.533,1.076,0.756,0.340,0.598,0.563,���k��,5.7,��
2022/11/11,01:10,0.592,0.853,0.533,1.074,0.757,0.340,0.599,0.563,�k��,6.4,��
2022/11/11,01:20,0.591,0.855,0.533,1.075,0.755,0.340,0.599,0.564,�k��,6.7,��
2022/11/11,01:30,0.590,0.856,0.533,1.075,0.754,0.339,0.598,0.563,�k��,6.8,��
2022/11/11,01:40,0.592,0.856,0.533,1.075,0.755,0.339,0.598,0.564,�k��,6.8,��
2022/11/11,01:50,0.590,0.854,0.532,1.076,0.756,0.340,0.599,0.564,���k��,7.4,��
2022/11/11,02:00,0.591,0.855,0.534,1.074,0.755,0.340,0.600,0.563,�k��,8.2,��
2022/11/11,02:10,0.591,0.856,0.534,1.075,0.753,0.340,0.599,0.564,�k��,9.3,��
2022/11/11,02:20,0.591,0.855,0.533,1.073,0.754,0.338,0.600,0.563,���k��,8.5,��
2022/11/11,02:30,0.592,0.856,0.533,1.072,0.756,0.340,0.600,0.562,���k��,7.2,��
2022/11/11,02:40,0.590,0.854,0.534,1.075,0.754,0.339,0.599,0.564,���k��,5.6,��
2022/11/11,02:50,0.590,0.854,0.533,1.074,0.755,0.339,0.600,0.564,���k��,5.6,��
2022/11/11,03:00,0.592,0.856,0.535,1.076,0.755,0.340,0.598,0.564,���k��,4.5,��
2022/11/11,03:10,0.591,0.854,0.534,1.073,0.754,0.340,0.599,0.565,���k��,3.9,��
2022/11/11,03:20,0.591,0.855,0.533,1.073,0.755,0.340,0.599,0.563,�k��,3.6,��
2022/11/11,03:30,0.592,0.854,0.533,1.075,0.756,0.340,0.600,0.562,���k��,4.2,��
2022/11/11,03:40,0.592,0.855,0.535,1.076,0.755,0.339,0.599,0.563,���k��,4.8,��
2022/11/11,03:50,0.591,0.854,0.533,1.074,0.756,0.339,0.598,0.564,�k��,4.9,��
2022/11/11,04:00,0.591,0.855,0.532,1.073,0.755,0.339,0.597,0.562,�k��,5.4,��
2022/11/11,04:10,0.590,0.854,0.534,1.076,0.754,0.339,0.597,0.564,�k��,4.3,��
2022/11/11,04:20,0.591,0.855,0.535,1.075,0.754,0.340,0.599,0.564,�k��,4.6,��
2022/11/11,04:30,0.591,0.855,0.533,1.076,0.754,0.338,0.599,0.563,�k��,4.8,��
2022/11/11,04:40,0.590,0.854,0.533,1.073,0.754,0.340,0.600,0.562,�k��,5.4,��
2022/11/11,04:50,0.590,0.855,0.532,1.075,0.755,0.339,0.599,0.564,�k�k��,5.6,��
2022/11/11,05:00,0.591,0.853,0.534,1.074,0.753,0.340,0.600,0.563,�k�k��,6.3,��
2022/11/11,05:10,0.590,0.855,0.534,1.075,0.753,0.340,0.597,0.563,�k��,7.4,��
2022/11/11,05:20,0.589,0.854,0.534,1.074,0.755,0.339,0.600,0.563,�k��,6.7,��
2022/11/11,05:30,0.590,0.856,0.535,1.076,0.754,0.340,0.599,0.563,�k�k��,5.6,��
2022/11/11,05:40,0.590,0.855,0.532,1.074,0.755,0.338,0.600,0.564,�k��,5.8,��
2022/11/11,05:50,0.591,0.858,0.532,1.074,0.754,0.339,0.599,0.564,�k�k��,6.2,��
2022/11/11,06:00,0.589,0.855,0.535,1.073,0.752,0.340,0.599,0.564,�k�k��,5.0,��
2022/11/11,06:10,0.591,0.854,0.532,1.076,0.755,0.340,0.599,0.564,�k�k��,5.0,��
2022/11/11,06:20,0.591,0.855,0.532,1.075,0.754,0.339,0.600,0.563,�k��,5.4,��
2022/11/11,06:30,0.591,0.854,0.534,1.076,0.755,0.339,0.600,0.564,�k��,5.0,��
2022/11/11,06:40,0.590,0.853,0.534,1.074,0.753,0.339,0.597,0.563,�k��,5.0,��
2022/11/11,06:50,0.592,0.851,0.534,1.077,0.754,0.339,0.598,0.564,�k��,5.4,��
2022/11/11,07:00,0.590,0.851,0.532,1.075,0.754,0.339,0.598,0.563,�k�k��,6.1,��
2022/11/11,07:10,0.589,0.855,0.534,1.076,0.753,0.338,0.599,0.563,�k�k��,6.5,��
2022/11/11,07:20,0.590,0.853,0.534,1.073,0.755,0.339,0.599,0.565,�k�k��,6.5,��
2022/11/11,07:30,0.589,0.853,0.532,1.076,0.754,0.339,0.599,0.562,�k�k��,7.0,��
2022/11/11,07:40,0.590,0.855,0.533,1.076,0.754,0.338,0.599,0.563,�k�k��,7.4,��
2022/11/11,07:50,0.591,0.854,0.536,1.075,0.754,0.340,0.598,0.563,�k�k��,6.7,��
2022/11/11,08:00,0.588,0.855,0.534,1.075,0.753,0.339,0.597,0.563,�k�k��,6.2,��
2022/11/11,08:10,0.589,0.855,0.532,1.076,0.753,0.340,0.598,0.562,�k�k��,6.4,��
2022/11/11,08:20,0.590,0.852,0.533,1.076,0.756,0.339,0.597,0.564,�k�k��,6.2,��
2022/11/11,08:30,0.592,0.851,0.533,1.076,0.754,0.340,0.597,0.564,�k�k��,7.2,��
2022/11/11,08:40,0.590,0.851,0.534,1.073,0.754,0.340,0.597,0.563,�k�k��,6.7,��
2022/11/11,08:50,0.591,0.849,0.532,1.074,0.753,0.340,0.598,0.564,�k�k��,6.3,��
2022/11/11,09:00,0.591,0.849,0.532,1.075,0.755,0.339,0.599,0.564,�k�k��,6.4,��
2022/11/11,09:10,0.591,0.852,0.532,1.072,0.754,0.341,0.597,0.564,�k�k��,5.0,��
2022/11/11,09:20,0.590,0.851,0.532,1.074,0.754,0.338,0.597,0.564,�k�k��,6.3,��
2022/11/11,09:30,0.588,0.852,0.532,1.075,0.755,0.340,0.598,0.565,�k�k��,5.6,��
2022/11/11,09:40,0.588,0.850,0.533,1.077,0.756,0.338,0.595,0.564,�k�k��,5.3,��
2022/11/11,09:50,0.590,0.849,0.533,1.075,0.756,0.338,0.598,0.564,�k�k��,4.4,��
2022/11/11,10:00,0.589,0.853,0.533,1.076,0.754,0.340,0.596,0.565,�k�k��,5.6,��
2022/11/11,10:10,0.589,0.851,0.535,1.076,0.752,0.337,0.599,0.564,�k,5.3,��
2022/11/11,10:20,0.589,0.851,0.533,1.073,0.752,0.338,0.597,0.564,�k�k��,5.3,��
2022/11/11,10:30,0.589,0.849,0.532,1.075,0.754,0.338,0.596,0.563,�k,5.5,��
2022/11/11,10:40,0.589,0.850,0.532,1.074,0.755,0.336,0.596,0.564,�k,4.4,��
2022/11/11,10:50,0.588,0.851,0.533,1.074,0.753,0.338,0.597,0.564,�k�k��,4.8,��
2022/11/11,11:00,0.589,0.851,0.532,1.075,0.753,0.337,0.597,0.563,�k�k��,4.4,��
2022/11/11,11:10,0.588,0.850,0.533,1.075,0.755,0.337,0.597,0.563,�k�k��,5.5,��
2022/11/11,11:20,0.588,0.852,0.531,1.075,0.751,0.338,0.597,0.562,�k�k��,5.2,��
2022/11/11,11:30,0.592,0.851,0.531,1.075,0.752,0.338,0.598,0.563,�k�k��,5.4,��
2022/11/11,11:40,0.588,0.853,0.532,1.075,0.752,0.337,0.596,0.561,�k�k��,5.2,��
2022/11/11,11:50,0.590,0.853,0.532,1.075,0.752,0.338,0.598,0.564,�k�k��,5.2,��
2022/11/11,12:00,0.589,0.852,0.533,1.073,0.754,0.338,0.594,0.563,�k,5.1,��
2022/11/11,12:10,0.591,0.854,0.532,1.076,0.754,0.339,0.596,0.561,�k�k��,5.6,��
2022/11/11,12:20,0.591,0.853,0.532,1.077,0.756,0.339,0.597,0.561,�k�k��,5.5,��
2022/11/11,12:30,0.590,0.855,0.532,1.075,0.754,0.337,0.597,0.561,�k�k��,5.5,��
2022/11/11,12:40,0.590,0.854,0.531,1.075,0.757,0.339,0.597,0.561,�k�k��,6.4,��
2022/11/11,12:50,0.591,0.853,0.531,1.075,0.754,0.338,0.598,0.562,�k�k��,5.8,��
2022/11/11,13:00,0.590,0.852,0.532,1.075,0.754,0.339,0.596,0.561,�k�k��,5.9,��
2022/11/11,13:10,0.590,0.852,0.533,1.074,0.754,0.338,0.597,0.563,�k�k��,5.4,��
2022/11/11,13:20,0.590,0.850,0.534,1.073,0.756,0.338,0.597,0.562,�k�k��,5.7,��
2022/11/11,13:30,0.590,0.854,0.533,1.078,0.755,0.340,0.597,0.563,�k�k��,5.4,��
2022/11/11,13:40,0.590,0.851,0.531,1.077,0.755,0.337,0.596,0.563,�k�k��,5.1,��
2022/11/11,13:50,0.592,0.851,0.532,1.075,0.754,0.339,0.597,0.561,�k�k��,4.9,��
2022/11/11,14:00,0.592,0.851,0.531,1.077,0.753,0.338,0.596,0.561,�k�k��,4.2,��
2022/11/11,14:10,0.589,0.852,0.532,1.077,0.754,0.338,0.597,0.562,�k�k��,4.2,��
2022/11/11,14:20,0.589,0.854,0.532,1.076,0.757,0.338,0.598,0.562,�k�k��,4.2,��
2022/11/11,14:30,0.590,0.852,0.530,1.077,0.754,0.338,0.597,0.562,�k�k��,3.6,��
2022/11/11,14:40,0.590,0.854,0.531,1.076,0.756,0.338,0.598,0.559,�k�k��,3.3,��
2022/11/11,14:50,0.589,0.855,0.531,1.077,0.753,0.337,0.598,0.561,�k�k��,3.4,��
2022/11/11,15:00,0.589,0.850,0.531,1.076,0.755,0.338,0.597,0.561,�k�k��,2.8,��
2022/11/11,15:10,0.591,0.851,0.533,1.076,0.754,0.338,0.598,0.561,�k�k��,3.0,��
2022/11/11,15:20,0.590,0.853,0.531,1.076,0.754,0.338,0.598,0.563,�k�k��,2.2,��
2022/11/11,15:30,0.592,0.852,0.533,1.076,0.756,0.340,0.598,0.564,�k,2.0,��
2022/11/11,15:40,0.590,0.853,0.532,1.077,0.754,0.340,0.599,0.562,�k,2.0,��
2022/11/11,15:50,0.591,0.854,0.532,1.075,0.756,0.339,0.599,0.563,�k�k��,2.0,��
2022/11/11,16:00,0.590,0.856,0.532,1.076,0.753,0.341,0.600,0.563,�k,1.7,��
2022/11/11,16:10,0.590,0.857,0.531,1.077,0.754,0.340,0.598,0.566,�k�k��,1.5,��
2022/11/11,16:20,0.590,0.854,0.533,1.074,0.753,0.340,0.599,0.565,�k�k��,1.7,��
2022/11/11,16:30,0.590,0.856,0.535,1.076,0.753,0.340,0.599,0.565,�k�k��,1.5,��
2022/11/11,16:40,0.590,0.855,0.534,1.076,0.757,0.340,0.598,0.565,�k�k��,2.3,��
2022/11/11,16:50,0.593,0.855,0.533,1.074,0.755,0.340,0.599,0.565,�k�k��,2.3,��
2022/11/11,17:00,0.591,0.857,0.536,1.075,0.754,0.340,0.597,0.564,�k�k��,2.0,��
2022/11/11,17:10,0.592,0.854,0.533,1.075,0.755,0.340,0.598,0.563,�k�k��,2.3,��
2022/11/11,17:20,0.592,0.854,0.532,1.078,0.756,0.339,0.597,0.563,�k�k��,3.0,��
2022/11/11,17:30,0.591,0.855,0.534,1.073,0.755,0.340,0.599,0.562,�k�k��,2.6,��
2022/11/11,17:40,0.590,0.852,0.533,1.076,0.755,0.340,0.600,0.563,�k��,3.2,��
2022/11/11,17:50,0.590,0.857,0.533,1.074,0.755,0.339,0.598,0.563,�k��,3.3,��
2022/11/11,18:00,0.590,0.856,0.534,1.075,0.758,0.339,0.599,0.563,�k��,3.6,��
2022/11/11,18:10,0.590,0.855,0.535,1.076,0.756,0.339,0.600,0.562,�k��,3.8,��
2022/11/11,18:20,0.591,0.854,0.535,1.076,0.757,0.340,0.599,0.564,�k��,3.9,��
2022/11/11,18:30,0.589,0.857,0.531,1.075,0.757,0.339,0.599,0.563,�k�k��,3.3,��
2022/11/11,18:40,0.590,0.855,0.532,1.073,0.756,0.339,0.598,0.563,�k��,3.6,��
2022/11/11,18:50,0.590,0.855,0.534,1.075,0.757,0.338,0.599,0.563,�k��,3.5,��
2022/11/11,19:00,0.589,0.854,0.533,1.077,0.754,0.338,0.598,0.562,�k��,3.6,��
2022/11/11,19:10,0.591,0.856,0.534,1.075,0.755,0.340,0.598,0.565,�k��,3.3,��
2022/11/11,19:20,0.590,0.855,0.534,1.075,0.757,0.338,0.597,0.566,�k��,3.1,��
2022/11/11,19:30,0.590,0.854,0.533,1.076,0.755,0.338,0.599,0.563,���k��,2.3,��
2022/11/11,19:40,0.589,0.856,0.532,1.077,0.755,0.339,0.598,0.562,���k��,2.3,��
2022/11/11,19:50,0.591,0.856,0.533,1.075,0.753,0.339,0.599,0.563,�k��,1.9,��
2022/11/11,20:00,0.591,0.854,0.534,1.076,0.756,0.339,0.597,0.563,�k��,1.4,��
2022/11/11,20:10,0.590,0.856,0.535,1.076,0.756,0.338,0.598,0.563,�k��,2.2,��
2022/11/11,20:20,0.589,0.855,0.533,1.076,0.754,0.339,0.599,0.564,�k��,2.5,��
2022/11/11,20:30,0.589,0.856,0.533,1.076,0.754,0.339,0.598,0.564,�k��,2.2,��
2022/11/11,20:40,0.591,0.855,0.532,1.074,0.756,0.340,0.599,0.562,�k��,2.0,��
2022/11/11,20:50,0.591,0.855,0.532,1.075,0.755,0.339,0.598,0.563,�k��,1.7,��
2022/11/11,21:00,0.588,0.853,0.534,1.077,0.756,0.339,0.599,0.563,���k��,1.4,��
2022/11/11,21:10,0.588,0.855,0.533,1.075,0.756,0.338,0.596,0.564,�k��,1.2,��
2022/11/11,21:20,0.590,0.853,0.532,1.074,0.756,0.340,0.599,0.563,�k�k��,1.2,��
2022/11/11,21:30,0.589,0.856,0.533,1.075,0.754,0.339,0.597,0.564,�k�k��,1.7,��
2022/11/11,21:40,0.589,0.854,0.533,1.076,0.755,0.339,0.597,0.563,�k��,2.6,��
2022/11/11,21:50,0.590,0.854,0.531,1.075,0.755,0.340,0.597,0.563,�k��,2.9,��
2022/11/11,22:00,0.589,0.855,0.532,1.076,0.756,0.340,0.600,0.562,���k��,2.0,��
2022/11/11,22:10,0.589,0.857,0.532,1.076,0.756,0.339,0.600,0.562,���k��,1.5,��
2022/11/11,22:20,0.590,0.856,0.532,1.075,0.757,0.339,0.599,0.564,�k��,1.2,��
2022/11/11,22:30,0.589,0.857,0.532,1.075,0.755,0.339,0.596,0.563,���k��,1.5,��
2022/11/11,22:40,0.590,0.854,0.533,1.077,0.755,0.338,0.597,0.564,���k��,1.7,��
2022/11/11,22:50,0.591,0.857,0.534,1.076,0.756,0.338,0.597,0.564,���k��,1.7,��
2022/11/11,23:00,0.589,0.854,0.533,1.076,0.756,0.340,0.597,0.564,���k��,1.5,��
2022/11/11,23:10,0.590,0.853,0.533,1.075,0.756,0.338,0.598,0.563,�k��,1.4,��
2022/11/11,23:20,0.589,0.854,0.534,1.077,0.757,0.340,0.597,0.563,���k��,0.9,��
2022/11/11,23:30,0.590,0.853,0.534,1.075,0.755,0.339,0.597,0.565,�k��,0.9,��
2022/11/11,23:40,0.588,0.853,0.533,1.074,0.756,0.339,0.598,0.564,�k��,0.9,��
2022/11/11,23:50,0.590,0.854,0.532,1.074,0.753,0.340,0.598,0.565,�k��,1.2,��
